Regional Weather Roundup
Issued by NWS Midland/Odessa, TX

Skip options and go directly to product.
Home | Oldest Version | Previous Version | Current Version | All | Text Only | Save Text | Print | Product List | Glossary On

Skip product version selection by date and time.   
155
ASUS44 KMAF 271010
RWRMAF
MIDLAND AREA WEATHER ROUNDUP
NATIONAL WEATHER SERVICE MIDLAND TX
500 AM CDT FRI MAY 27 2016

...IN SOUTHWEST TEXAS AND SOUTHEAST NEW MEXICO...

CITY           SKY/WX    TMP DP  RH WIND       PRES   REMARKS
ALPINE         CLEAR     50  25  37 W8        29.96R
ANDREWS        FAIR      63  23  21 NW7       29.79R
ARTESIA        CLEAR     55  16  21 W14       29.82S
BIG SPRING     CLEAR     61  53  75 S3        29.77R
CARLSBAD       CLEAR     58  14  17 W9        29.81R
DRYDEN           N/A     71  46  40 SW10      29.71R
FORT STOCKTON  CLEAR     62  22  21 W10       29.79R
GUAD PASS      NOT AVBL
HOBBS          CLEAR     55  18  22 W8        29.82S
MARFA          CLEAR     51  14  22 NW7       29.93S
MIDLAND AIRPK  CLEAR     67  33  28 NW12      29.76R
MIDLAND INTL   CLEAR     68  29  23 NW13      29.75R
ODESSA         CLEAR     69  21  16 NW13      29.77R
PECOS          CLEAR     64  19  18 W9        29.80R
PRESIDIO       FAIR      73  12   9 SW7       29.84R
SEMINOLE       CLEAR     59  23  25 W8        29.80R
SNYDER           N/A     62  61  96 S6        29.74R
WINK           CLEAR     56  29  35 NW7       29.76S
$$
...OTHER STATIONS IN TEXAS...

CITY           SKY/WX    TMP DP  RH WIND       PRES   REMARKS
ABILENE        CLOUDY    62  32  32 E8        29.72F
AMARILLO       PTCLDY    48  41  76 N8        29.78R
AUSTIN         CLOUDY    70  68  93 CALM      29.74R
BROWNSVILLE    MOCLDY    81  79  94 S17       29.69F
CORPUS CHRISTI MOCLDY    81  76  84 S12       29.70S
DALLAS FTW     CLOUDY    70  64  81 SW25G32   29.79R THUNDER
DEL RIO        CLEAR     74  64  71 E3        29.64R
EL PASO        CLEAR     68  18  14 W12       29.89S
HOUSTON INT    TSTM      67  65  93 N23G38    29.85S FOG
LUBBOCK        CLEAR     56  26  31 NW8       29.73S
SAN ANGELO     PTCLDY    64  63  96 SW5       29.70R
SAN ANTONIO    CLOUDY    74  70  87 E8        29.70F
WACO           CLOUDY    70  67  90 S7        29.77R
WICHITA FALLS  NOT AVBL
$$
...OTHER LOCATIONS IN NEW MEXICO...

CITY           SKY/WX    TMP DP  RH WIND       PRES   REMARKS
ALAMAGORDO     CLEAR     54  16  22 NE9       29.89S
ALBUQUERQUE    CLEAR     45  21  38 SE7       29.91F
CANNON AFB     CLEAR     50  28  42 N8        29.81S
CLOVIS         CLEAR     48  30  49 N8        29.81R
HOLLOMAN AFB   CLEAR     51  14  23 N5        29.88R
ROSWELL        CLEAR     56  17  21 W12       29.82R
RUIDOSO          N/A     48  18  29 W8        29.99S
SANTA FE       CLOUDY    46  23  40 CALM      29.89F
TRUTH OR CONSE CLEAR     55  25  31 W6        29.92S
TUCUMCARI      CLEAR     48  36  63 NE6       29.80F
$$

USA.gov is the U.S. government's official web portal to all federal, state and local government web resources and services.